BCS67R LEBB-LEZL

Flight info

Callsign BCS67R
Flight time 1h 11m
Altitude 33000
Route AMTOS L14 NEA DCT NONTU DCT ORBIS DCT DISKO DCT TLD DCT DOPEN DCT MONTO DCT MOLIN DCT HIJ
Aircraft A306/H-SDE1FGHIRWXYZ/HB1

Departure

Time 2026-04-24 20:23
Airport Bilbao Airport (LEBB)

Arrival

Time 2026-04-24 21:34
Airport Seville Airport (LEZL)
Time Latitude Longitude Altitude Speed Heading
2026-04-24 19:48 43.30205 -2.90325 130 ft 0 kts 329°
2026-04-24 20:11 43.30193 -2.90315 127 ft 4 kts 329°
2026-04-24 20:11 43.30170 -2.90296 129 ft 4 kts 329°
2026-04-24 20:11 43.30150 -2.90277 130 ft 4 kts 300°
2026-04-24 20:12 43.30148 -2.90251 133 ft 4 kts 225°
2026-04-24 20:12 43.30169 -2.90230 133 ft 4 kts 208°
2026-04-24 20:12 43.30193 -2.90213 128 ft 4 kts 214°
2026-04-24 20:12 43.30207 -2.90196 127 ft 0 kts 238°
2026-04-24 20:18 43.30201 -2.90211 130 ft 3 kts 238°
2026-04-24 20:18 43.30183 -2.90250 132 ft 4 kts 238°
2026-04-24 20:18 43.30168 -2.90283 130 ft 4 kts 238°
2026-04-24 20:18 43.30151 -2.90319 133 ft 5 kts 238°
2026-04-24 20:19 43.30103 -2.90404 129 ft 10 kts 205°
2026-04-24 20:19 43.30050 -2.90379 128 ft 7 kts 128°
2026-04-24 20:19 43.30025 -2.90318 132 ft 8 kts 116°
2026-04-24 20:19 43.30002 -2.90252 132 ft 8 kts 116°
2026-04-24 20:20 43.29978 -2.90184 132 ft 8 kts 116°
2026-04-24 20:20 43.29935 -2.90066 133 ft 28 kts 117°
2026-04-24 20:20 43.29847 -2.89834 134 ft 25 kts 118°
2026-04-24 20:20 43.29766 -2.89627 133 ft 18 kts 119°
2026-04-24 20:21 43.29730 -2.89596 134 ft 3 kts 178°
2026-04-24 20:21 43.29690 -2.89624 134 ft 15 kts 220°
2026-04-24 20:21 43.29667 -2.89660 128 ft 1 kts 234°
2026-04-24 20:21 43.29660 -2.89674 128 ft 3 kts 237°
2026-04-24 20:22 43.29644 -2.89712 131 ft 7 kts 240°
2026-04-24 20:22 43.29635 -2.89778 128 ft 7 kts 273°
2026-04-24 20:22 43.29653 -2.89826 131 ft 6 kts 303°
2026-04-24 20:22 43.29761 -2.90107 132 ft 80 kts 297°
2026-04-24 20:23 43.30143 -2.91156 132 ft 165 kts 297°
2026-04-24 20:23 43.30720 -2.92720 1072 ft 192 kts 298°
2026-04-24 20:23 43.31336 -2.94285 2547 ft 170 kts 298°
2026-04-24 20:23 43.31871 -2.95645 2857 ft 159 kts 297°
2026-04-24 20:24 43.32464 -2.97014 3189 ft 184 kts 307°
2026-04-24 20:24 43.33411 -2.98437 3658 ft 219 kts 314°
2026-04-24 20:24 43.34575 -2.99972 4175 ft 242 kts 316°
2026-04-24 20:24 43.35840 -3.01601 4789 ft 255 kts 316°
2026-04-24 20:25 43.37156 -3.03294 5444 ft 263 kts 316°
2026-04-24 20:25 43.38502 -3.05032 6170 ft 268 kts 316°
2026-04-24 20:25 43.39930 -3.06670 7023 ft 267 kts 326°
2026-04-24 20:25 43.41691 -3.07559 7848 ft 277 kts 353°
2026-04-24 20:26 43.43605 -3.07175 9003 ft 284 kts 21°
2026-04-24 20:26 43.45179 -3.05583 10126 ft 292 kts 50°
2026-04-24 20:26 43.46077 -3.03013 10752 ft 312 kts 79°
2026-04-24 20:26 43.45975 -2.99954 11126 ft 334 kts 107°
2026-04-24 20:27 43.44811 -2.97124 11485 ft 352 kts 133°
2026-04-24 20:27 43.42898 -2.94949 12053 ft 362 kts 145°
2026-04-24 20:27 43.40725 -2.93171 12795 ft 366 kts 157°
2026-04-24 20:27 43.38250 -2.92338 13543 ft 369 kts 177°
2026-04-24 20:28 43.35711 -2.92849 14298 ft 373 kts 199°
2026-04-24 20:28 43.33388 -2.94446 14994 ft 376 kts 210°
2026-04-24 20:28 43.31166 -2.96296 15668 ft 381 kts 211°
2026-04-24 20:28 43.28894 -2.98217 16359 ft 385 kts 211°
2026-04-24 20:29 43.27372 -2.99497 16813 ft 388 kts 211°
2026-04-24 20:29 43.24262 -3.02096 17733 ft 394 kts 211°
2026-04-24 20:29 43.21908 -3.04052 18424 ft 398 kts 211°
2026-04-24 20:29 43.19523 -3.06029 19031 ft 402 kts 211°
2026-04-24 20:30 43.17118 -3.08018 19645 ft 405 kts 211°
2026-04-24 20:30 43.14697 -3.10019 20235 ft 409 kts 211°
2026-04-24 20:30 43.12285 -3.12011 20790 ft 412 kts 211°
2026-04-24 20:30 43.09821 -3.14045 21349 ft 415 kts 211°
2026-04-24 20:31 43.07339 -3.16090 21911 ft 419 kts 211°
2026-04-24 20:31 43.04833 -3.18155 22414 ft 422 kts 211°
2026-04-24 20:31 43.02309 -3.20233 22949 ft 425 kts 211°
2026-04-24 20:31 42.99773 -3.22341 23468 ft 428 kts 212°
2026-04-24 20:32 42.97268 -3.24564 23921 ft 431 kts 213°
2026-04-24 20:32 42.94781 -3.26871 24370 ft 433 kts 214°
2026-04-24 20:32 42.92300 -3.29211 24781 ft 435 kts 214°
2026-04-24 20:32 42.89840 -3.31535 25174 ft 437 kts 214°
2026-04-24 20:33 42.87331 -3.33895 25572 ft 439 kts 214°
2026-04-24 20:33 42.84806 -3.36254 25965 ft 441 kts 214°
2026-04-24 20:33 42.82264 -3.38616 26339 ft 443 kts 214°
2026-04-24 20:33 42.79707 -3.40982 26697 ft 445 kts 214°
2026-04-24 20:34 42.77140 -3.43352 27051 ft 447 kts 214°
2026-04-24 20:34 42.74562 -3.45727 27463 ft 447 kts 214°
2026-04-24 20:34 42.71982 -3.48101 27806 ft 449 kts 214°
2026-04-24 20:34 42.69391 -3.50484 28129 ft 451 kts 214°
2026-04-24 20:35 42.66823 -3.52844 28440 ft 452 kts 214°
2026-04-24 20:35 42.64184 -3.55267 28896 ft 451 kts 214°
2026-04-24 20:35 42.61623 -3.57616 29379 ft 449 kts 214°
2026-04-24 20:35 42.59040 -3.59983 29865 ft 447 kts 214°
2026-04-24 20:36 42.56470 -3.62335 30329 ft 445 kts 214°
2026-04-24 20:36 42.53902 -3.64682 30695 ft 445 kts 213°
2026-04-24 20:36 42.51342 -3.67020 31049 ft 444 kts 213°
2026-04-24 20:36 42.48778 -3.69359 31437 ft 443 kts 213°
2026-04-24 20:37 42.46223 -3.71688 31824 ft 442 kts 213°
2026-04-24 20:37 42.43674 -3.74008 32238 ft 441 kts 213°
2026-04-24 20:37 42.41136 -3.76317 32592 ft 440 kts 213°
2026-04-24 20:37 42.38626 -3.78598 32977 ft 439 kts 213°
2026-04-24 20:38 42.36093 -3.80898 33143 ft 439 kts 213°
2026-04-24 20:38 42.33591 -3.83167 33144 ft 421 kts 213°
2026-04-24 20:38 42.31212 -3.85325 33142 ft 403 kts 213°
2026-04-24 20:38 42.28903 -3.87416 33146 ft 398 kts 213°
2026-04-24 20:39 42.24303 -3.91570 33149 ft 398 kts 213°
2026-04-24 20:39 42.19709 -3.95714 33147 ft 398 kts 213°
2026-04-24 20:40 42.15136 -3.99834 33147 ft 398 kts 213°
2026-04-24 20:40 42.10536 -4.03972 33144 ft 398 kts 213°
2026-04-24 20:41 42.05918 -4.08082 33141 ft 398 kts 210°
2026-04-24 20:41 42.00827 -4.10905 33143 ft 397 kts 192°
2026-04-24 20:42 41.95397 -4.11908 33147 ft 397 kts 186°
2026-04-24 20:42 41.89893 -4.12513 33144 ft 397 kts 185°
2026-04-24 20:43 41.84390 -4.13072 33143 ft 396 kts 185°
2026-04-24 20:43 41.78902 -4.13667 33143 ft 396 kts 185°
2026-04-24 20:44 41.73408 -4.14287 33142 ft 396 kts 185°
2026-04-24 20:44 41.67959 -4.14907 33145 ft 396 kts 185°
2026-04-24 20:45 41.62467 -4.15532 33139 ft 396 kts 185°
2026-04-24 20:45 41.56971 -4.16153 33137 ft 396 kts 185°
2026-04-24 20:46 41.51479 -4.16772 33143 ft 396 kts 185°
2026-04-24 20:46 41.46020 -4.17387 33143 ft 396 kts 185°
2026-04-24 20:47 41.40520 -4.18006 33143 ft 397 kts 185°
2026-04-24 20:47 41.35020 -4.18623 33142 ft 397 kts 185°
2026-04-24 20:48 41.29518 -4.19239 33143 ft 397 kts 185°
2026-04-24 20:48 41.24015 -4.19855 33145 ft 397 kts 185°
2026-04-24 20:49 41.18551 -4.20466 33144 ft 397 kts 185°
2026-04-24 20:49 41.13041 -4.21080 33143 ft 397 kts 185°
2026-04-24 20:50 41.07537 -4.21693 33145 ft 397 kts 185°
2026-04-24 20:50 41.01902 -4.22319 33153 ft 415 kts 185°
2026-04-24 20:51 40.96029 -4.22972 33150 ft 431 kts 185°
2026-04-24 20:51 40.89996 -4.23642 33145 ft 444 kts 185°
2026-04-24 20:52 40.83802 -4.24329 33146 ft 448 kts 185°
2026-04-24 20:52 40.77593 -4.25015 33138 ft 447 kts 184°
2026-04-24 20:53 40.71398 -4.25696 33137 ft 447 kts 184°
2026-04-24 20:53 40.65245 -4.26371 33129 ft 447 kts 184°
2026-04-24 20:54 40.59053 -4.27049 33136 ft 447 kts 184°
2026-04-24 20:54 40.52857 -4.27727 33127 ft 447 kts 184°
2026-04-24 20:55 40.46661 -4.28403 33119 ft 447 kts 184°
2026-04-24 20:55 40.40814 -4.29039 33128 ft 446 kts 184°
2026-04-24 20:56 40.34812 -4.29693 33109 ft 446 kts 184°
2026-04-24 20:56 40.28620 -4.30365 33096 ft 446 kts 184°
2026-04-24 20:57 40.22435 -4.31036 33097 ft 446 kts 184°
2026-04-24 20:57 40.16294 -4.31700 33092 ft 446 kts 184°
2026-04-24 20:58 40.14711 -4.31871 33092 ft 446 kts 184°
2026-04-24 20:58 40.10008 -4.32378 33087 ft 447 kts 184°
2026-04-24 20:59 40.03801 -4.33047 33083 ft 447 kts 184°
2026-04-24 20:59 39.97638 -4.33714 33083 ft 448 kts 184°
2026-04-24 21:00 39.91458 -4.34811 33084 ft 449 kts 188°
2026-04-24 21:00 39.85297 -4.36211 33088 ft 450 kts 188°
2026-04-24 21:01 39.79132 -4.37611 33087 ft 450 kts 188°
2026-04-24 21:01 39.72957 -4.38962 33088 ft 450 kts 188°
2026-04-24 21:02 39.66811 -4.40275 33095 ft 452 kts 188°
2026-04-24 21:02 39.60602 -4.41595 33095 ft 452 kts 188°
2026-04-24 21:03 39.54397 -4.42914 33098 ft 452 kts 188°
2026-04-24 21:03 39.48189 -4.44234 33101 ft 452 kts 187°
2026-04-24 21:04 39.42012 -4.45545 33111 ft 453 kts 187°
2026-04-24 21:04 39.35786 -4.46863 33098 ft 453 kts 187°
2026-04-24 21:05 39.29562 -4.48178 33093 ft 453 kts 187°
2026-04-24 21:05 39.23381 -4.49815 33099 ft 457 kts 196°
2026-04-24 21:06 39.17709 -4.53488 33099 ft 462 kts 209°
2026-04-24 21:06 39.12309 -4.58004 33099 ft 463 kts 211°
2026-04-24 21:07 39.06972 -4.62640 33102 ft 463 kts 211°
2026-04-24 21:07 39.01619 -4.67248 33103 ft 463 kts 211°
2026-04-24 21:08 38.96228 -4.71820 33102 ft 465 kts 210°
2026-04-24 21:08 38.90857 -4.76356 33095 ft 465 kts 210°
2026-04-24 21:09 38.85456 -4.80917 33095 ft 465 kts 210°
2026-04-24 21:09 38.80044 -4.85481 33096 ft 465 kts 210°
2026-04-24 21:10 38.74637 -4.90033 33096 ft 465 kts 210°
2026-04-24 21:10 38.69393 -4.94445 32829 ft 439 kts 210°
2026-04-24 21:11 38.66874 -4.96562 32439 ft 426 kts 210°
2026-04-24 21:11 38.64452 -4.98595 31993 ft 406 kts 210°
2026-04-24 21:11 38.62138 -5.00536 31544 ft 390 kts 209°
2026-04-24 21:11 38.59893 -5.02414 30930 ft 382 kts 209°
2026-04-24 21:12 38.57950 -5.04037 30329 ft 378 kts 209°
2026-04-24 21:12 38.56499 -5.05247 29797 ft 376 kts 209°
2026-04-24 21:12 38.53585 -5.07677 28780 ft 370 kts 210°
2026-04-24 21:12 38.51421 -5.09413 28047 ft 364 kts 205°
2026-04-24 21:13 38.49137 -5.10649 27344 ft 356 kts 195°
2026-04-24 21:13 38.46784 -5.11611 26664 ft 352 kts 194°
2026-04-24 21:13 38.44450 -5.12516 25985 ft 349 kts 194°
2026-04-24 21:13 38.42137 -5.13410 25321 ft 346 kts 194°
2026-04-24 21:14 38.39869 -5.14290 24780 ft 346 kts 195°
2026-04-24 21:14 38.37568 -5.15186 24425 ft 344 kts 195°
2026-04-24 21:14 38.35291 -5.16074 24077 ft 341 kts 195°
2026-04-24 21:14 38.33039 -5.16954 23485 ft 336 kts 195°
2026-04-24 21:15 38.30810 -5.17824 22720 ft 334 kts 195°
2026-04-24 21:15 38.28595 -5.18690 22004 ft 331 kts 195°
2026-04-24 21:15 38.26403 -5.19546 21309 ft 328 kts 195°
2026-04-24 21:15 38.24226 -5.20396 20637 ft 325 kts 195°
2026-04-24 21:16 38.22077 -5.21233 19977 ft 322 kts 195°
2026-04-24 21:16 38.19944 -5.22064 19334 ft 319 kts 195°
2026-04-24 21:16 38.17859 -5.22876 18711 ft 316 kts 195°
2026-04-24 21:16 38.15764 -5.23692 18047 ft 313 kts 195°
2026-04-24 21:17 38.13690 -5.24498 17304 ft 311 kts 195°
2026-04-24 21:17 38.11623 -5.25301 16593 ft 309 kts 195°
2026-04-24 21:17 38.09573 -5.26097 15909 ft 307 kts 195°
2026-04-24 21:17 38.08227 -5.26620 15463 ft 306 kts 195°
2026-04-24 21:18 38.05522 -5.27671 14666 ft 301 kts 195°
2026-04-24 21:18 38.03525 -5.28446 14045 ft 299 kts 195°
2026-04-24 21:18 38.01550 -5.29211 13347 ft 297 kts 195°
2026-04-24 21:18 37.99605 -5.29964 12662 ft 295 kts 195°
2026-04-24 21:19 37.97646 -5.30722 11963 ft 294 kts 196°
2026-04-24 21:19 37.95701 -5.31473 11329 ft 291 kts 196°
2026-04-24 21:19 37.93765 -5.32221 10684 ft 290 kts 197°
2026-04-24 21:19 37.91847 -5.32962 10066 ft 288 kts 197°
2026-04-24 21:20 37.88073 -5.34419 8862 ft 277 kts 197°
2026-04-24 21:20 37.86235 -5.35129 8220 ft 275 kts 197°
2026-04-24 21:20 37.84412 -5.35832 7591 ft 273 kts 197°
2026-04-24 21:21 37.82618 -5.36525 7137 ft 274 kts 197°
2026-04-24 21:21 37.80792 -5.37229 6631 ft 277 kts 197°
2026-04-24 21:21 37.78928 -5.37947 6156 ft 283 kts 197°
2026-04-24 21:21 37.77068 -5.38773 5995 ft 284 kts 206°
2026-04-24 21:22 37.75441 -5.40156 5987 ft 282 kts 220°
2026-04-24 21:22 37.73965 -5.41782 5987 ft 281 kts 223°
2026-04-24 21:22 37.72509 -5.43439 5985 ft 282 kts 223°
2026-04-24 21:22 37.71547 -5.44532 5984 ft 282 kts 223°
2026-04-24 21:23 37.69647 -5.46757 5974 ft 281 kts 231°
2026-04-24 21:23 37.68562 -5.48787 5988 ft 279 kts 240°
2026-04-24 21:23 37.67560 -5.50898 5983 ft 279 kts 241°
2026-04-24 21:23 37.66931 -5.52235 5978 ft 280 kts 241°
2026-04-24 21:24 37.66445 -5.53268 5986 ft 280 kts 241°
2026-04-24 21:25 37.65801 -5.54639 5981 ft 280 kts 241°
2026-04-24 21:25 37.64809 -5.56748 5945 ft 279 kts 241°
2026-04-24 21:25 37.63810 -5.58841 5743 ft 277 kts 238°
2026-04-24 21:25 37.62454 -5.60472 5087 ft 277 kts 209°
2026-04-24 21:26 37.60603 -5.61068 4374 ft 275 kts 187°
2026-04-24 21:26 37.58754 -5.61523 3973 ft 269 kts 198°
2026-04-24 21:26 37.56953 -5.62185 3891 ft 271 kts 197°
2026-04-24 21:26 37.55203 -5.63067 3898 ft 272 kts 211°
2026-04-24 21:27 37.53529 -5.64161 3895 ft 272 kts 199°
2026-04-24 21:27 37.51656 -5.64270 3896 ft 273 kts 167°
2026-04-24 21:27 37.50029 -5.63107 3904 ft 272 kts 135°
2026-04-24 21:27 37.49171 -5.61962 3870 ft 272 kts 133°
2026-04-24 21:28 37.47049 -5.60456 3322 ft 263 kts 173°
2026-04-24 21:28 37.45316 -5.60700 3038 ft 243 kts 203°
2026-04-24 21:28 37.43968 -5.61807 2831 ft 224 kts 224°
2026-04-24 21:28 37.42904 -5.63139 2684 ft 209 kts 229°
2026-04-24 21:29 37.42196 -5.64629 2563 ft 191 kts 250°
2026-04-24 21:29 37.41920 -5.66174 2449 ft 173 kts 265°
2026-04-24 21:29 37.41882 -5.67625 2304 ft 159 kts 270°
2026-04-24 21:29 37.41880 -5.68972 2137 ft 149 kts 269°
2026-04-24 21:30 37.41877 -5.70237 1979 ft 140 kts 269°
2026-04-24 21:30 37.41871 -5.71412 1684 ft 133 kts 268°
2026-04-24 21:30 37.41861 -5.72574 1278 ft 135 kts 267°
2026-04-24 21:30 37.41853 -5.73769 1049 ft 137 kts 266°
2026-04-24 21:31 37.41847 -5.74957 1027 ft 135 kts 267°
2026-04-24 21:31 37.41843 -5.76140 1020 ft 136 kts 268°
2026-04-24 21:31 37.41839 -5.77346 1014 ft 139 kts 266°
2026-04-24 21:31 37.41834 -5.78599 1042 ft 147 kts 267°
2026-04-24 21:32 37.41831 -5.79852 1029 ft 140 kts 268°
2026-04-24 21:32 37.41826 -5.81058 1018 ft 138 kts 267°
2026-04-24 21:32 37.41821 -5.82245 999 ft 138 kts 268°
2026-04-24 21:32 37.41818 -5.83432 833 ft 134 kts 267°
2026-04-24 21:33 37.41820 -5.84619 661 ft 137 kts 268°
2026-04-24 21:33 37.41806 -5.85420 516 ft 140 kts 267°
2026-04-24 21:33 37.41807 -5.87028 224 ft 134 kts 268°
2026-04-24 21:33 37.41801 -5.88138 120 ft 118 kts 268°
2026-04-24 21:34 37.41787 -5.88835 108 ft 50 kts 268°
2026-04-24 21:34 37.41794 -5.89170 107 ft 36 kts 269°
2026-04-24 21:35 37.41795 -5.89359 106 ft 33 kts 271°
2026-04-24 21:35 37.41793 -5.89633 104 ft 30 kts 271°
2026-04-24 21:35 37.41878 -5.89814 105 ft 23 kts 337°
2026-04-24 21:35 37.41995 -5.89882 104 ft 12 kts 338°
2026-04-24 21:36 37.42018 -5.89893 103 ft 1 kts 338°
2026-04-24 21:36 37.42025 -5.89898 104 ft 3 kts 328°
2026-04-24 21:36 37.42050 -5.89941 101 ft 8 kts 296°
2026-04-24 21:37 37.42054 -5.90011 100 ft 8 kts 267°
2026-04-24 21:37 37.42052 -5.90086 100 ft 9 kts 269°
2026-04-24 21:37 37.42052 -5.90165 101 ft 8 kts 270°
2026-04-24 21:37 37.42060 -5.90215 102 ft 4 kts 310°
2026-04-24 21:38 37.42079 -5.90224 101 ft 1 kts
2026-04-24 21:38 37.42084 -5.90214 100 ft 1 kts 58°
2026-04-24 21:38 37.42097 -5.90191 103 ft 4 kts 46°
2026-04-24 21:38 37.42108 -5.90180 100 ft 0 kts 38°
2026-04-24 21:39 37.42110 -5.90178 100 ft 0 kts 38°